Temperature
9 9 9 9 9 9 8 8 8 8 8 8 7 7 7 6 6 6 6 6 5 5 5 5 4 4 4 3 3 3 2 2 2 2 2 2 2 2 2 2 2 2 2
9 8 8 8 8 8 8 8 7 7 7 7 7 6 6 6 6 6 5 5 5 5 5 4 4 4 3 3 3 2 2 2 1 1 2 2 2 1 1 1 1 1 2
8 8 8 8 8 7 7 7 7 7 7 6 6 6 6 6 5 5 5 5 5 4 4 4 3 3 3 2 2 2 2 1 1 1 1 1 1 1 1 1 1 1 1
7 7 7 7 7 7 7 6 6 6 6 6 6 6 5 5 5 5 4 4 4 4 3 3 3 2 2 2 2 1 1 1 1 0 0 0 0 -0 -0 -0 0 0 1
7 7 7 6 6 6 6 6 6 5 5 5 5 5 5 5 4 4 4 4 3 3 3 2 2 2 1 1 1 1 1 0 -0 -1 -1 -1 -1 -1 -1 -1 -1 -1 -0
6 6 6 5 5 5 5 5 5 5 4 4 4 4 4 4 4 3 3 3 3 2 2 2 2 1 1 1 1 0 0 -0 -1 -1 -1 -2 -1 -2 -2 -2 -2 -2 -2
5 5 5 5 5 4 4 4 4 4 4 4 4 4 3 3 3 3 2 2 2 2 1 1 1 1 0 0 -0 -0 -0 -1 -1 -2 -2 -2 -2 -2 -2 -2 -2 -2 -2
5 4 4 4 4 4 4 4 3 3 3 3 3 3 3 3 2 2 1 1 1 1 0 0 -0 -0 -0 -0 -1 -1 -1 -1 -1 -2 -2 -2 -2 -2 -3 -3 -3 -3 -2
4 4 4 4 4 3 3 3 3 3 3 2 2 2 2 2 2 1 1 1 0 0 -0 -0 -1 -1 -1 -1 -1 -1 -1 -1 -1 -2 -2 -2 -2 -2 -3 -3 -3 -3 -3
3 3 3 3 3 3 3 2 2 2 2 2 1 1 1 1 1 0 0 -0 -0 -0 -1 -1 -1 -1 -1 -1 -1 -1 -1 -2 -2 -2 -2 -2 -2 -2 -3 -3 -3 -4 -4
3 2 2 2 2 2 2 2 1 1 1 1 1 0 0 0 -0 -0 -1 -1 -1 -1 -1 -1 -2 -2 -2 -2 -2 -2 -2 -2 -2 -2 -2 -2 -3 -3 -3 -3 -3 -4 -4
2 2 2 2 1 1 1 1 1 0 0 -0 -0 -0 -1 -1 -1 -1 -1 -1 -2 -2 -2 -2 -2 -2 -2 -2 -2 -3 -3 -3 -3 -3 -3 -3 -3 -3 -3 -3 -3 -4 -4
1 1 1 1 1 1 1 0 0 -0 -1 -1 -1 -1 -1 -2 -2 -2 -2 -2 -2 -2 -2 -2 -3 -3 -3 -3 -3 -3 -3 -3 -3 -3 -3 -3 -4 -4 -4 -4 -4 -4 -4
1 1 0 0 0 -0 -0 -0 -1 -1 -1 -2 -2 -2 -2 -2 -2 -3 -3 -3 -3 -3 -3 -3 -3 -3 -3 -3 -3 -3 -3 -3 -4 -4 -4 -4 -4 -4 -4 -4 -4 -4 -4
0 -0 -0 -1 -1 -1 -1 -1 -1 -2 -2 -2 -2 -3 -3 -3 -3 -3 -3 -3 -3 -3 -3 -3 -4 -4 -3 -3 -3 -4 -4 -4 -4 -4 -4 -4 -4 -4 -4 -4 -5 -5 -5
-1 -1 -1 -1 -1 -2 -2 -2 -2 -2 -2 -3 -3 -3 -3 -3 -3 -3 -3 -3 -4 -4 -4 -4 -4 -4 -4 -4 -4 -4 -4 -5 -5 -5 -5 -5 -5 -5 -5 -5 -5 -5 -5
-1 -2 -2 -2 -2 -2 -2 -2 -2 -2 -3 -3 -3 -3 -4 -4 -4 -4 -4 -4 -4 -4 -4 -4 -5 -5 -5 -5 -5 -5 -5 -5 -5 -5 -5 -6 -6 -6 -6 -6 -6 -6 -6
-2 -2 -2 -2 -2 -2 -3 -3 -3 -3 -3 -3 -3 -4 -4 -4 -4 -4 -4 -4 -4 -5 -5 -5 -5 -5 -5 -5 -6 -6 -6 -6 -6 -6 -6 -6 -6 -6 -6 -6 -6 -6 -6
-3 -3 -2 -3 -3 -3 -3 -3 -3 -4 -4 -4 -4 -4 -4 -4 -4 -5 -5 -5 -5 -5 -5 -5 -6 -6 -6 -6 -6 -6 -6 -6 -6 -6 -6 -6 -6 -6 -6 -6 -6 -6 -6
-3 -3 -3 -3 -3 -3 -4 -4 -4 -4 -4 -5 -5 -5 -5 -5 -5 -5 -5 -5 -6 -6 -6 -6 -6 -6 -6 -6 -6 -6 -6 -6 -6 -6 -6 -6 -6 -6 -7 -6 -7 -7 -7
-4 -4 -4 -4 -4 -4 -4 -4 -5 -5 -5 -5 -5 -5 -6 -6 -6 -6 -6 -6 -6 -6 -6 -6 -6 -6 -6 -6 -6 -6 -7 -7 -7 -7 -7 -7 -7 -7 -7 -7 -7 -7 -7
-4 -4 -4 -4 -4 -5 -5 -5 -5 -5 -5 -5 -6 -6 -6 -6 -6 -6 -6 -6 -6 -7 -7 -7 -6 -7 -7 -7 -7 -7 -7 -7 -7 -7 -7 -7 -7 -7 -7 -7 -7 -7 -7
-5 -5 -5 -5 -5 -5 -5 -5 -5 -6 -6 -6 -6 -6 -6 -6 -6 -6 -7 -7 -7 -7 -7 -7 -7 -7 -7 -7 -7 -7 -7 -7 -7 -7 -7 -7 -7 -7 -7 -7 -7 -7 -7
-5 -5 -5 -5 -5 -5 -6 -6 -6 -6 -6 -6 -6 -7 -7 -7 -7 -7 -7 -7 -7 -7 -7 -7 -7 -7 -7 -7 -7 -7 -7 -7 -7 -7 -7 -7 -7 -7 -7 -7 -7 -7 -7
-6 -6 -6 -6 -6 -6 -6 -6 -6 -6 -7 -7 -7 -7 -7 -7 -7 -7 -7 -7 -7 -7 -7 -7 -7 -7 -7 -7 -7 -7 -7 -7 -7 -7 -7 -7 -7 -7 -7 -7 -7 -7 -7
-6 -6 -6 -6 -6 -7 -7 -7 -7 -7 -7 -7 -7 -7 -7 -8 -8 -8 -8 -8 -7 -7 -7 -7 -7 -7 -7 -7 -7 -7 -7 -7 -7 -7 -7 -7 -7 -7 -7 -7 -7 -7 -7
Wind_Speed
5 4 4 4 4 4 4 4 4 3 3 3 3 2 2 1 1 1 1 1 2 3 3 4 4 4 4 4 4 4 5 6 10 9 6 6 7 8 10 10 12 11 13
5 5 4 4 4 4 4 4 4 3 3 2 3 2 1 0 0 1 2 2 3 3 4 4 5 4 5 4 4 5 5 6 8 11 9 7 8 8 8 9 10 11 11
5 5 5 4 4 4 4 4 3 3 3 2 3 2 1 0 0 1 1 2 3 3 3 4 5 4 6 5 5 6 5 6 6 9 10 8 7 7 9 9 10 8 11
5 5 4 4 4 4 4 3 3 3 2 2 2 1 0 0 0 1 1 2 2 3 4 4 5 5 6 6 6 6 6 6 7 8 9 8 8 7 7 8 9 7 9
5 5 4 4 4 4 4 3 3 2 2 2 1 1 0 0 1 1 1 2 3 4 4 4 5 7 9 8 7 6 6 6 6 7 9 8 8 7 7 7 9 9 9
5 4 4 4 4 4 3 3 2 2 1 1 1 0 0 1 3 4 4 3 3 4 5 6 6 7 9 11 12 12 11 9 8 8 8 9 10 9 8 9 9 9 9
5 4 4 4 4 4 3 2 2 1 1 1 0 0 0 1 4 5 6 4 4 4 5 6 6 7 8 7 10 12 12 13 13 10 10 11 11 10 9 11 10 10 11
4 4 4 4 4 3 3 2 1 1 0 0 1 1 1 2 5 6 7 5 4 5 5 6 6 7 8 8 8 8 8 8 10 9 9 10 10 10 9 11 11 9 9
4 4 3 4 3 3 2 1 1 0 0 0 1 1 2 3 5 7 8 4 4 5 5 6 7 7 11 13 9 9 9 8 10 13 14 14 16 16 13 8 7 7 9
3 3 3 3 3 3 2 1 1 0 0 1 2 2 2 3 5 7 8 3 4 5 5 6 9 10 13 13 8 8 9 9 8 9 10 12 11 12 13 8 6 7 8
3 3 3 2 2 2 2 1 1 0 0 1 2 2 3 3 5 7 8 4 4 5 5 5 6 12 14 14 12 8 11 11 7 7 7 7 7 6 6 6 6 6 7
3 3 3 2 1 1 2 1 1 0 0 1 2 3 3 3 4 6 8 8 8 6 6 6 7 13 14 14 11 11 14 12 6 5 6 6 6 6 6 6 7 7 8
3 3 2 2 1 1 1 1 0 0 1 2 2 3 4 3 4 7 8 9 10 7 6 10 12 14 13 10 11 13 10 6 5 5 6 6 6 6 5 5 6 6 7
3 2 2 2 1 1 1 0 0 1 1 2 3 3 4 4 4 3 4 6 8 7 6 9 12 12 10 10 9 8 5 5 5 5 6 5 5 5 5 5 5 6 6
3 2 2 1 1 1 1 1 1 1 2 3 3 3 4 5 6 8 7 5 5 6 7 5 5 5 5 5 5 5 4 4 5 5 5 5 5 5 5 5 5 5 6
2 1 1 1 1 1 0 2 3 3 4 5 5 6 5 7 9 10 10 10 11 10 6 4 5 5 5 5 5 5 5 5 4 4 4 5 5 6 6 5 5 5 6
1 1 1 0 0 0 0 1 2 4 5 6 6 7 7 8 9 9 9 10 9 8 4 4 4 5 5 5 5 5 5 5 4 4 4 5 5 5 6 6 5 5 6
1 1 1 0 0 0 1 1 2 2 3 4 5 7 8 8 9 9 9 7 5 5 3 4 5 5 5 5 5 5 5 5 5 4 4 4 5 5 5 5 5 5 6
1 1 1 0 1 1 1 1 2 2 3 3 4 5 7 8 8 8 7 4 4 4 4 4 4 5 5 5 5 5 5 5 5 5 4 5 4 4 5 5 5 7 6
1 2 2 1 1 1 1 1 2 2 3 3 3 4 4 5 4 5 4 4 4 5 5 5 5 5 5 4 5 5 4 5 5 4 4 4 4 4 5 5 5 5 5
1 1 2 2 1 1 1 2 2 2 3 3 4 5 7 4 4 5 4 4 4 5 5 5 4 4 4 4 4 4 5 5 5 4 4 4 4 4 4 4 5 5 4
2 1 1 1 1 1 2 2 2 2 3 4 4 5 9 5 4 4 5 5 5 4 4 4 4 4 4 4 4 4 5 5 5 4 4 4 4 4 4 4 4 4 3
1 1 1 1 1 2 2 2 2 3 3 4 4 4 5 4 5 5 5 5 5 5 5 4 4 4 4 5 5 4 4 5 5 5 5 5 4 4 4 4 4 4 3
1 1 1 1 2 2 2 2 3 3 3 4 4 4 4 4 5 5 5 5 5 5 5 5 4 5 7 6 6 6 6 6 6 5 5 4 4 4 4 4 4 4 3
1 1 1 1 2 2 2 3 3 3 4 4 4 5 4 5 5 5 5 5 5 5 6 6 5 5 7 7 7 7 8 9 9 7 5 3 3 4 4 3 3 3 2
1 1 1 1 1 2 2 3 3 4 4 4 4 4 4 4 5 5 5 5 5 5 5 5 6 7 8 7 7 9 10 10 9 9 6 3 2 3 3 2 3 2 2
Wind_Direction
142 144 139 136 128 122 128 135 135 127 123 131 139 134 131 154 199 213 248 259 262 274 278 276 276 274 274 273 272 271 270 269 276 285 287 297 298 299 304 305 301 296 296
137 130 128 126 127 127 122 122 118 117 115 122 128 111 99 61 278 248 263 275 267 273 279 284 286 290 287 284 280 276 272 268 273 285 291 295 294 299 298 298 302 300 297
126 125 124 127 128 124 118 115 114 115 115 109 104 112 113 127 313 303 295 295 293 292 293 288 287 289 289 286 283 279 278 283 279 282 288 292 293 299 301 297 293 292 297
126 127 127 126 121 117 113 112 114 117 114 109 111 118 136 251 259 295 303 302 301 299 294 288 284 280 280 283 284 280 282 285 284 285 288 293 293 295 298 299 300 296 295
122 122 124 117 112 112 113 113 109 104 104 107 113 113 200 274 264 292 300 296 290 294 298 294 290 287 287 288 287 284 282 280 286 288 289 293 295 302 302 300 298 302 296
118 122 120 119 118 119 122 121 115 110 109 108 128 130 329 309 304 305 307 297 296 296 298 298 296 293 295 296 295 292 286 280 279 278 282 285 289 291 295 299 298 299 297
124 126 124 124 122 125 121 110 113 113 96 76 38 59 298 291 301 309 314 313 299 296 295 295 297 298 302 295 295 294 289 285 278 274 274 277 283 287 291 293 287 287 286
125 125 123 124 128 125 120 123 111 87 77 292 312 314 303 298 310 312 315 314 297 293 293 293 293 295 295 295 291 289 280 279 279 277 270 274 278 280 276 281 282 284 284
130 133 134 135 136 135 140 144 122 82 357 320 319 316 307 302 306 308 309 301 297 298 297 297 297 292 298 304 301 294 290 287 290 290 290 289 290 291 292 292 288 293 297
137 133 130 138 147 150 152 141 87 68 331 343 323 306 295 296 301 310 312 302 299 301 300 298 299 299 301 305 302 298 294 291 293 296 294 293 291 291 293 285 278 282 292
117 121 128 131 137 141 128 118 116 71 349 317 302 301 295 297 306 310 314 315 302 302 302 302 300 305 306 307 307 295 293 299 292 288 291 292 291 289 286 282 272 269 279
106 111 114 112 108 102 107 92 99 74 299 295 300 304 303 303 308 309 312 312 313 305 300 300 302 309 310 309 308 303 305 309 298 293 294 294 296 296 292 289 286 279 271
106 106 107 98 90 103 118 116 80 360 310 299 298 301 308 313 313 315 316 314 312 310 301 304 307 310 312 310 307 308 311 306 299 295 293 292 291 289 292 296 296 293 291
115 107 104 97 76 52 43 54 252 279 286 294 296 300 306 307 307 308 306 306 306 304 302 305 310 310 310 306 306 308 305 295 301 294 294 294 297 297 299 300 304 309 307
103 99 96 96 94 53 10 332 299 268 262 280 277 284 294 297 299 309 312 307 308 302 310 308 308 310 314 317 318 312 308 309 309 304 302 306 308 308 307 307 305 311 306
98 95 101 101 78 69 14 350 348 332 321 316 312 308 304 302 308 312 313 314 315 315 318 311 307 307 307 311 313 313 312 311 308 306 304 303 307 309 309 312 312 312 311
92 93 88 94 96 26 322 321 323 330 328 323 318 314 314 315 316 316 318 320 318 321 319 307 303 303 304 306 308 309 311 310 307 304 304 305 307 307 309 313 316 318 317
59 68 65 78 43 307 292 294 290 300 312 315 312 311 318 321 321 322 325 329 323 325 312 300 299 300 302 304 306 307 308 313 312 307 303 303 305 308 312 313 314 315 317
35 64 62 36 334 305 303 303 300 300 303 307 314 313 318 319 320 323 330 326 310 310 309 303 301 300 300 302 303 302 303 307 309 306 302 304 308 311 310 311 313 316 318
27 8 7 6 352 338 326 314 310 308 309 308 306 307 315 320 316 317 319 313 307 305 304 302 302 301 302 300 300 302 307 308 310 309 307 306 306 305 305 308 309 310 312
3 353 355 3 351 327 316 308 306 306 305 306 304 305 317 315 304 305 309 308 306 305 306 303 302 302 300 298 298 299 300 303 304 305 308 309 307 307 305 304 304 304 307
350 345 346 338 330 323 317 309 308 304 303 303 306 310 316 318 309 309 308 308 308 306 304 303 302 299 295 293 294 297 299 301 304 306 307 308 308 306 305 304 306 310 314
348 339 337 329 318 311 319 308 306 304 302 301 305 311 315 315 313 312 313 315 316 317 313 307 306 308 304 294 287 287 290 293 296 297 303 308 309 310 309 305 304 306 309
329 319 317 318 317 312 309 312 309 306 306 307 309 311 311 313 314 316 317 317 320 321 317 313 310 309 310 309 301 294 289 290 294 293 290 294 299 302 303 302 303 299 302
326 322 318 313 314 313 312 311 309 309 311 312 313 314 316 317 318 318 319 320 321 321 320 317 312 311 312 311 308 304 307 310 310 307 297 290 290 294 298 301 304 309 314
328 321 318 316 314 312 309 307 307 310 311 311 312 312 314 315 315 316 318 320 322 321 320 318 314 313 312 311 310 313 318 320 321 320 315 301 293 300 310 316 320 328 337
Height
1453 1455 1458 1460 1462 1463 1464 1466 1467 1468 1469 1470 1470 1471 1472 1472 1473 1473 1472 1472 1471 1470 1469 1468 1467 1466 1464 1463 1462 1460 1459 1456 1451 1446 1446 1443 1441 1439 1436 1434 1431 1428 1425
1451 1453 1455 1457 1458 1460 1461 1463 1464 1465 1466 1466 1466 1467 1468 1469 1469 1469 1468 1468 1467 1465 1464 1463 1462 1461 1459 1457 1456 1454 1452 1450 1447 1441 1438 1436 1434 1432 1429 1427 1424 1421 1418
1448 1450 1452 1454 1455 1457 1459 1460 1461 1462 1463 1463 1463 1464 1464 1465 1464 1464 1464 1463 1462 1461 1459 1458 1457 1455 1453 1451 1450 1448 1446 1444 1441 1437 1432 1430 1428 1426 1423 1420 1417 1414 1411
1446 1448 1450 1451 1453 1454 1456 1457 1458 1459 1460 1460 1460 1460 1461 1461 1460 1460 1459 1458 1457 1456 1454 1453 1451 1449 1447 1445 1443 1441 1439 1437 1435 1432 1427 1424 1422 1419 1417 1413 1409 1406 1404
1443 1445 1447 1448 1450 1452 1453 1454 1455 1456 1457 1457 1457 1457 1457 1457 1456 1456 1455 1454 1452 1450 1449 1447 1445 1444 1442 1440 1438 1435 1433 1431 1428 1426 1422 1419 1416 1413 1411 1408 1404 1400 1397
1441 1443 1444 1445 1447 1449 1450 1451 1452 1453 1453 1454 1454 1453 1453 1453 1452 1452 1451 1449 1447 1445 1443 1441 1440 1438 1436 1434 1432 1430 1428 1426 1423 1420 1417 1414 1411 1409 1406 1403 1399 1395 1390
1439 1440 1441 1443 1445 1446 1447 1449 1449 1450 1450 1450 1450 1450 1449 1449 1448 1447 1446 1444 1442 1440 1438 1436 1434 1432 1430 1428 1425 1424 1422 1420 1418 1416 1412 1409 1406 1404 1401 1397 1394 1391 1386
1436 1438 1439 1441 1442 1443 1445 1445 1446 1446 1446 1446 1446 1446 1445 1444 1444 1442 1441 1439 1437 1435 1433 1431 1429 1426 1424 1422 1420 1417 1415 1413 1411 1409 1407 1404 1401 1398 1396 1393 1389 1385 1381
1434 1435 1437 1438 1439 1440 1441 1442 1443 1443 1443 1442 1442 1441 1440 1439 1439 1438 1437 1434 1432 1430 1428 1426 1424 1421 1419 1417 1415 1412 1409 1407 1405 1403 1401 1398 1396 1393 1391 1388 1384 1380 1375
1432 1433 1435 1436 1437 1437 1438 1439 1439 1439 1439 1439 1438 1437 1437 1435 1434 1433 1432 1430 1427 1425 1423 1421 1419 1417 1414 1412 1410 1406 1403 1401 1399 1396 1394 1392 1389 1387 1385 1383 1379 1376 1371
1430 1431 1432 1433 1434 1435 1435 1436 1436 1436 1436 1435 1434 1434 1433 1432 1430 1429 1428 1426 1423 1421 1418 1416 1413 1411 1409 1407 1404 1401 1398 1396 1393 1390 1387 1385 1383 1381 1378 1376 1374 1372 1368
1429 1429 1430 1431 1432 1433 1433 1433 1433 1433 1432 1431 1430 1429 1429 1428 1427 1425 1423 1422 1420 1417 1414 1411 1409 1406 1404 1401 1399 1396 1393 1391 1388 1385 1382 1379 1377 1375 1373 1371 1369 1366 1364
1427 1428 1429 1429 1430 1430 1431 1430 1430 1430 1429 1428 1427 1426 1425 1424 1422 1421 1419 1417 1415 1413 1410 1407 1404 1402 1399 1396 1394 1391 1389 1386 1383 1380 1377 1375 1373 1370 1368 1365 1363 1360 1358
1425 1426 1426 1427 1428 1428 1428 1428 1427 1427 1426 1425 1424 1423 1421 1420 1418 1416 1414 1412 1410 1408 1405 1402 1400 1397 1394 1392 1389 1387 1384 1382 1379 1376 1373 1371 1369 1366 1364 1361 1358 1355 1352
1423 1424 1425 1425 1426 1426 1426 1426 1425 1425 1424 1423 1422 1420 1418 1416 1415 1413 1411 1408 1406 1403 1400 1398 1395 1392 1390 1387 1385 1383 1381 1378 1375 1373 1370 1368 1365 1363 1360 1358 1355 1352 1349
1421 1422 1422 1423 1423 1423 1423 1423 1422 1422 1421 1421 1419 1418 1415 1414 1411 1409 1407 1404 1402 1399 1397 1394 1391 1389 1386 1384 1381 1379 1377 1374 1372 1369 1367 1365 1362 1359 1357 1355 1352 1350 1347
1420 1420 1420 1420 1420 1420 1420 1419 1418 1418 1418 1417 1415 1414 1412 1410 1408 1405 1403 1400 1398 1395 1393 1390 1388 1386 1383 1381 1378 1376 1373 1371 1369 1367 1364 1362 1359 1357 1354 1352 1349 1347 1344
1418 1418 1418 1418 1418 1418 1418 1417 1416 1415 1413 1412 1412 1410 1408 1406 1404 1402 1399 1397 1394 1392 1389 1387 1385 1382 1380 1378 1375 1373 1370 1368 1366 1364 1361 1359 1357 1355 1352 1349 1347 1345 1342
1416 1416 1416 1416 1416 1416 1415 1415 1414 1413 1411 1410 1408 1406 1405 1403 1401 1399 1396 1393 1391 1388 1386 1384 1381 1379 1377 1374 1372 1370 1368 1365 1363 1361 1359 1357 1354 1352 1350 1347 1345 1343 1340
1415 1415 1415 1414 1414 1413 1413 1412 1411 1410 1408 1407 1405 1403 1401 1399 1397 1395 1393 1390 1388 1386 1383 1381 1378 1376 1374 1371 1369 1367 1365 1363 1360 1358 1356 1354 1352 1350 1347 1345 1343 1341 1339
1413 1412 1412 1412 1412 1411 1410 1410 1408 1407 1406 1404 1403 1401 1399 1397 1394 1392 1390 1388 1385 1383 1380 1378 1375 1373 1371 1369 1366 1364 1362 1360 1358 1356 1354 1351 1350 1348 1345 1343 1341 1339 1337
1411 1410 1410 1410 1409 1409 1408 1407 1406 1405 1403 1402 1399 1398 1396 1394 1392 1389 1387 1385 1383 1380 1378 1375 1373 1370 1368 1366 1364 1362 1360 1357 1355 1353 1351 1349 1347 1345 1343 1341 1340 1338 1336
1409 1408 1408 1408 1407 1407 1406 1405 1403 1402 1401 1399 1397 1395 1393 1391 1389 1387 1384 1382 1380 1377 1375 1372 1370 1368 1366 1364 1362 1360 1357 1355 1354 1352 1349 1347 1345 1343 1341 1340 1338 1337 1335
1407 1406 1406 1405 1405 1404 1403 1402 1401 1399 1398 1396 1394 1392 1390 1388 1386 1384 1382 1379 1377 1374 1372 1370 1368 1366 1363 1361 1360 1358 1355 1353 1352 1349 1347 1345 1343 1341 1340 1338 1337 1335 1334
1404 1404 1403 1403 1402 1401 1400 1399 1398 1397 1395 1393 1391 1389 1387 1385 1383 1381 1379 1376 1374 1372 1369 1367 1365 1363 1361 1359 1357 1355 1353 1351 1349 1348 1345 1343 1341 1340 1339 1337 1336 1335 1334
1402 1401 1401 1400 1400 1399 1398 1397 1395 1394 1392 1390 1389 1387 1385 1383 1381 1378 1376 1374 1371 1369 1367 1365 1363 1361 1359 1357 1355 1353 1351 1349 1347 1346 1344 1342 1340 1339 1338 1337 1335 1334 1334